DW1774 Weather Reports


Display with metric or nautical units.
time (UTC)temp
F
wind
direction
speed
MPH
gust
MPH
rain 1hr
in
rain 24hr
in
rain mn
in
humidity
%
barometer
mb
20260504205905 83 159 6.0 13.0 0.00 0.00 0.00 54 1012.6
20260504205404 84 195 5.0 13.0 0.00 0.00 0.00 52 1012.7
20260504204904 84 171 5.0 13.0 0.00 0.00 0.00 50 1012.6
20260504204404 85 167 5.0 12.0 0.00 0.00 0.00 51 1012.8
20260504203904 85 176 4.0 12.0 0.00 0.00 0.00 53 1012.8
20260504203404 84 169 4.0 10.0 0.00 0.00 0.00 53 1012.9
20260504202903 84 166 5.0 12.0 0.00 0.00 0.00 52 1013.0
20260504202405 84 202 5.0 12.0 0.00 0.00 0.00 51 1013.0
20260504201904 84 182 2.0 12.0 0.00 0.00 0.00 51 1013.1
20260504201405 84 194 3.0 14.0 0.00 0.00 0.00 51 1013.2
20260504200905 84 252 6.0 14.0 0.00 0.00 0.00 49 1013.2
20260504200405 84 213 3.0 12.0 0.00 0.00 0.00 52 1013.2
20260504195404 85 175 5.0 12.0 0.00 0.00 0.00 50 1013.4
20260504194905 85 170 7.0 12.0 0.00 0.00 0.00 49 1013.4
20260504193904 86 185 3.0 12.0 0.00 0.00 0.00 48 1013.5
20260504192905 87 203 4.0 10.0 0.00 0.00 0.00 47 1013.9
20260504192405 87 205 3.0 12.0 0.00 0.00 0.00 48 1013.9
20260504191904 86 211 3.0 12.0 0.00 0.00 0.00 50 1013.9
20260504191404 86 183 5.0 15.0 0.00 0.00 0.00 51 1013.9
20260504190905 85 150 6.0 15.0 0.00 0.00 0.00 48 1014.0
20260504190404 85 162 6.0 15.0 0.00 0.00 0.00 50 1014.0
20260504185405 85 157 4.0 13.0 0.00 0.00 0.00 49 1014.1
20260504184904 85 195 6.0 13.0 0.00 0.00 0.00 48 1014.0
20260504184405 85 204 5.0 13.0 0.00 0.00 0.00 50 1013.9
20260504183904 85 172 7.0 13.0 0.00 0.00 0.00 50 1013.9
20260504183404 85 191 7.0 12.0 0.00 0.00 0.00 48 1014.0
20260504182903 84 237 3.0 13.0 0.00 0.00 0.00 49 1014.1
20260504182403 84 173 7.0 13.0 0.00 0.00 0.00 48 1014.4
20260504181904 84 172 7.0 13.0 0.00 0.00 0.00 51 1014.4
20260504181405 84 190 4.0 12.0 0.00 0.00 0.00 52 1014.5
20260504180904 83 182 5.0 15.0 0.00 0.00 0.00 50 1014.6
20260504180404 83 195 5.0 15.0 0.00 0.00 0.00 49 1014.6
20260504175904 83 192 6.0 15.0 0.00 0.00 0.00 50 1014.7
20260504175405 83 205 3.0 15.0 0.00 0.00 0.00 52 1014.6
20260504174405 83 149 1.0 14.0 0.00 0.00 0.00 49 1014.6
20260504173904 84 188 6.0 14.0 0.00 0.00 0.00 51 1014.8
20260504172904 83 216 6.0 12.0 0.00 0.00 0.00 50 1015.0
20260504172404 83 187 4.0 12.0 0.00 0.00 0.00 51 1015.0
20260504171903 83 188 4.0 12.0 0.00 0.00 0.00 51 1015.0
20260504170904 83 181 5.0 12.0 0.00 0.00 0.00 50 1015.2
20260504170403 83 182 2.0 13.0 0.00 0.00 0.00 51 1015.2
20260504160404 80 176 2.0 12.0 0.00 0.00 0.00 54 1016.0
20260504150905 80 185 7.0 15.0 0.00 0.00 0.00 55 1015.9
20260504150404 80 219 7.0 15.0 0.00 0.00 0.00 56 1016.0
20260504140905 76 180 3.0 12.0 0.00 0.00 0.00 63 1015.8
20260504140404 75 177 5.0 12.0 0.00 0.00 0.00 64 1015.8
20260504130404 61 168 0.0 0.0 0.00 0.00 0.00 88 1016.0
20260504100404 59 171 0.0 0.0 0.00 0.00 0.00 80 1015.6
20260504081904 60 171 0.0 0.0 0.00 0.00 0.00 76 1016.5
20260504081405 60 171 0.0 0.0 0.00 0.00 0.00 76 1016.5
20260504080904 60 171 0.0 0.0 0.00 0.00 0.00 75 1016.6
20260504080404 60 171 0.0 0.0 0.00 0.00 0.00 75 1016.8
20260504070404 60 170 1.0 2.0 0.00 0.00 0.00 75 1017.4
20260504045903 62 168 0.0 0.0 0.00 0.00 0.00 67 1018.3
20260504045405 63 168 0.0 0.0 0.00 0.00 0.00 67 1018.5
20260504044904 63 168 0.0 0.0 0.00 0.00 0.00 66 1018.5
20260504044404 63 168 0.0 0.0 0.00 0.00 0.00 66 1018.5
20260504043904 63 168 0.0 0.0 0.00 0.00 0.00 65 1018.6
20260504042404 64 168 0.0 0.0 0.00 0.00 0.00 64 1018.6
20260504041904 64 168 0.0 0.0 0.00 0.00 0.00 64 1018.5
20260504041404 64 168 0.0 0.0 0.00 0.00 0.00 64 1018.4
20260504040904 64 168 0.0 0.0 0.00 0.00 0.00 63 1018.4
20260504040403 64 168 0.0 0.0 0.00 0.00 0.00 63 1018.4
20260504035904 65 168 0.0 0.0 0.00 0.00 0.00 62 1018.4
20260504034904 65 168 0.0 0.0 0.00 0.00 0.00 62 1018.5
20260504034403 65 168 0.0 0.0 0.00 0.00 0.00 61 1018.7
20260504033405 66 168 0.0 3.0 0.00 0.00 0.00 60 1018.5
20260504032905 66 168 0.0 3.0 0.00 0.00 0.00 60 1018.5
20260504032404 66 168 0.0 2.0 0.00 0.00 0.00 60 1018.5
20260504031404 66 168 0.0 2.0 0.00 0.00 0.00 58 1018.3
20260504030904 67 168 0.0 2.0 0.00 0.00 0.00 58 1018.3
20260504030403 67 168 1.0 2.0 0.00 0.00 0.00 57 1018.4
20260504025404 67 168 0.0 3.0 0.00 0.00 0.00 57 1018.4
20260504024904 67 168 0.0 3.0 0.00 0.00 0.00 57 1018.5
20260504024404 68 168 1.0 2.0 0.00 0.00 0.00 56 1018.5
20260504023905 68 167 1.0 3.0 0.00 0.00 0.00 56 1018.5
20260504023404 68 167 1.0 3.0 0.00 0.00 0.00 55 1018.4
20260504022904 68 167 1.0 3.0 0.00 0.00 0.00 55 1018.4
20260504022404 68 167 1.0 3.0 0.00 0.00 0.00 55 1018.3
20260504021904 69 189 0.0 0.0 0.00 0.00 0.00 54 1018.3
20260504021404 69 189 0.0 0.0 0.00 0.00 0.00 53 1018.4
20260504020904 69 189 0.0 0.0 0.00 0.00 0.00 53 1018.3
20260504020403 69 189 0.0 3.0 0.00 0.00 0.00 53 1018.3
20260504015904 69 190 0.0 5.0 0.00 0.00 0.00 53 1018.3
20260504015404 69 190 1.0 5.0 0.00 0.00 0.00 52 1018.3
20260504014904 70 162 2.0 8.0 0.00 0.00 0.00 52 1018.3
20260504014404 70 166 2.0 8.0 0.00 0.00 0.00 52 1018.3
20260504012404 71 159 2.0 7.0 0.00 0.00 0.00 50 1018.3
20260504011904 71 183 2.0 6.0 0.00 0.00 0.00 49 1018.2
20260504010904 72 165 2.0 6.0 0.00 0.00 0.00 48 1018.2
20260504010404 72 185 1.0 5.0 0.00 0.00 0.00 47 1018.2
20260504005903 72 167 2.0 6.0 0.00 0.00 0.00 47 1018.2
20260504005404 72 194 3.0 7.0 0.00 0.00 0.00 47 1018.2
20260504004904 73 164 2.0 7.0 0.00 0.00 0.00 46 1018.1
20260504004404 73 156 2.0 9.0 0.00 0.00 0.00 45 1018.1
20260504003903 73 185 3.0 9.0 0.00 0.00 0.00 45 1018.2
20260504002904 74 164 3.0 9.0 0.00 0.00 0.00 43 1018.1
20260504002404 74 188 3.0 12.0 0.00 0.00 0.00 43 1018.0
20260504001404 75 175 2.0 12.0 0.00 0.00 0.00 41 1018.1
20260504000905 75 140 5.0 10.0 0.00 0.00 0.00 41 1018.2
20260504000403 76 147 1.0 9.0 0.00 0.00 0.00 40 1018.2
20260503235904 76 183 3.0 9.0 0.00 0.00 0.00 40 1018.1
20260503235404 77 161 5.0 8.0 0.00 0.00 0.00 38 1018.2
20260503234904 78 146 5.0 9.0 0.00 0.00 0.00 38 1018.3
20260503234404 78 173 5.0 9.0 0.00 0.00 0.00 37 1018.3
20260503233905 79 160 2.0 8.0 0.00 0.00 0.00 38 1018.3
20260503232403 80 172 3.0 9.0 0.00 0.00 0.00 36 1018.4
20260503231904 80 180 3.0 9.0 0.00 0.00 0.00 37 1018.4
20260503230904 80 174 2.0 10.0 0.00 0.00 0.00 37 1018.5
20260503230404 80 163 3.0 10.0 0.00 0.00 0.00 36 1018.6
20260503225905 80 160 2.0 8.0 0.00 0.00 0.00 36 1018.5
20260503225405 80 161 3.0 12.0 0.00 0.00 0.00 35 1018.6
20260503224403 81 142 3.0 9.0 0.00 0.00 0.00 36 1018.6
20260503223904 81 127 2.0 8.0 0.00 0.00 0.00 35 1018.7
20260503223404 82 142 3.0 9.0 0.00 0.00 0.00 33 1018.9
20260503222404 83 146 3.0 12.0 0.00 0.00 0.00 33 1018.9
20260503221904 83 139 3.0 12.0 0.00 0.00 0.00 34 1018.8
20260503220904 83 119 2.0 9.0 0.00 0.00 0.00 31 1018.9
20260503220404 83 156 4.0 9.0 0.00 0.00 0.00 32 1018.9
20260503215905 84 129 2.0 9.0 0.00 0.00 0.00 33 1018.9
20260503215404 84 174 2.0 8.0 0.00 0.00 0.00 32 1019.0
20260503214404 85 156 3.0 8.0 0.00 0.00 0.00 30 1019.2
20260503213904 84 184 2.0 12.0 0.00 0.00 0.00 36 1019.3
20260503212904 84 146 5.0 10.0 0.00 0.00 0.00 29 1019.4
20260503212404 84 132 3.0 10.0 0.00 0.00 0.00 32 1019.5
20260503211405 83 70 3.0 12.0 0.00 0.00 0.00 32 1019.5
20260503210904 84 103 1.0 12.0 0.00 0.00 0.00 27 1019.6
20260503210403 85 148 5.0 12.0 0.00 0.00 0.00 30 1019.7